Regional Weather Roundup
Issued by NWS

Home | Current Version | Previous Version | Text Only | Print | Product List | Glossary Off
Versions: 1 2 3 4 5 6 7 8 9 10 11 12 13 14 15 16 17 18 19 20 21 22 23 24 25 26 27 28 29 30 31 32 33 34 35 36 37 38 39 40 41 42 43 44 45 46 47 48 49 50

000
ASUS43 KMKX 270959
RWRWI

WISCONSIN REGIONAL WEATHER ROUNDUP
NATIONAL WEATHER SERVICE MILWAUKEE/SULLIVAN WI
400 AM CST FRI FEB 27 2015

NOTE: "FAIR" INDICATES FEW OR NO CLOUDS BELOW 12,000 FEET WITH NO
SIGNIFICANT WEATHER AND/OR OBSTRUCTIONS TO VISIBILITY.

WIZ001-002-006>008-014>016-023>028-271100-
NORTHWEST WISCONSIN

CITY           SKY/WX    TMP DP  RH WIND       PRES   REMARKS
SUPERIOR ARPT  PTCLDY    -8 -14  73 SW5       30.47R WCI -19
ASHLAND        CLEAR     -5 -14  65 SW8       30.42S WCI -20
HAYWARD        CLEAR    -18 -24  74 CALM      30.40S
SIREN          CLEAR     -8 -15  71 CALM      30.46R
CUMBERLAND     CLEAR     -9 -18  64 W8        30.41S WCI -26
RICE LAKE      CLEAR     -9 -15  74 CALM      30.45S
CHETEK         CLEAR    -11 -15  84 MISG      30.45R
LADYSMITH      CLEAR    -14 -20  75 CALM      30.42R
EAU CLAIRE     NOT AVBL
MENOMONIE      CLEAR     -3 -11  70 CALM      30.48S
NEW RICHMOND   CLEAR     -8 -14  76 W6        30.47S WCI -22
OSCEOLA        CLEAR     -8 -13  76 W3        30.52R
$$

WIZ003>005-009-010-017-018-271100-
NORTH CENTRAL WISCONSIN

CITY           SKY/WX    TMP DP  RH WIND       PRES   REMARKS
MANITOWISH WTR CLEAR    -20 -26  73 CALM      30.31S
ARBOR VITAE    CLEAR    -14 -20  73 CALM      30.31S
WOODRUFF       CLEAR    -14 -20  73 CALM      30.31S
RHINELANDER    CLEAR    -15 -20  78 W6        30.32R WCI -29
EAGLE RIVER    PTCLDY   -21 -28  69 CALM      30.30S
LAND O LAKES   CLEAR    -28 -35  68 CALM      30.30S
PHILLIPS       CLEAR    -18 -23  80 CALM      30.35R
TOMAHAWK       CLEAR    -19 -26  71 CALM      30.35R
MEDFORD        CLEAR     -9 -15  77 CALM      30.36R
MERRILL        CLEAR    -18 -24  74 CALM      30.37R
$$

WIZ029-030-035-036-043>047-271100-
CENTRAL WISCONSIN

CITY           SKY/WX    TMP DP  RH WIND       PRES   REMARKS
WAUSAU         CLEAR     -6 -13  71 NW7       30.39R WCI -20
MOSINEE        CLEAR     -6 -13  71 W5        30.39S WCI -17
MARSHFIELD     CLEAR     -5 -13  68 W7        30.41R WCI -19
STEVENS POINT  CLEAR    -15 -21  76 CALM      30.42R
WAUPACA        CLEAR     -1 -11  62 W5        30.44S WCI -11
WAUTOMA        NOT AVBL
WISC RAPIDS    FAIR     -12 -17  78 CALM      30.45R
CAMP DOUGLAS   NOT AVBL
$$

WIZ011>013-019>022-031-037>040-048>050-271100-
NORTHEAST WISCONSIN

CITY           SKY/WX    TMP DP  RH WIND       PRES   REMARKS
ANTIGO         CLEAR     -8 -15  73 W7        30.34R WCI -23
SHAWANO        CLEAR     -2 -10  70 W3        30.43S
OCONTO         CLEAR     -8 -12  80 W5        30.43R WCI -19
STURGEON BAY   CLEAR     -2  -9  71 W6        30.42S WCI -14
GREEN BAY      CLEAR     -1  -8  72 W8        30.44R WCI -15
MANITOWOC      NOT AVBL
APPLETON       CLEAR     -2 -11  65 W10       30.42R WCI -19
CLINTONVILLE   CLEAR     -4 -11  71 W6        30.43R WCI -16
OSHKOSH        CLEAR     -1 -10  65 W6        30.43S WCI -13
$$

WIZ032>034-041-042-053>061-271100-
SOUTHWEST WISCONSIN

CITY           SKY/WX    TMP DP  RH WIND       PRES   REMARKS
LA CROSSE      CLEAR     -6 -11  79 CALM      30.52S
SPARTA         CLEAR    -17 -23  74 CALM      30.49S
VIROQUA        CLEAR     -6 -10  82 W7        30.43S WCI -20
BOSCOBEL       CLEAR    -13 -18  78 CALM      30.53S
PRAIRIE DU CHI CLEAR    -10 -16  75 NW3       30.54S
PLATTEVILLE    CLEAR    -10 -14  80 W5        30.48R WCI -21
$$

WIZ056-057-062-063-064-067-068-271100-
SOUTH CENTRAL WISCONSIN

CITY           SKY/WX    TMP DP  RH WIND       PRES   REMARKS
REEDSBURG      CLEAR     -8 -13  80 CALM      30.46S
BARABOO/DELLS  CLEAR     -7 -13  73 CALM      30.45S
LONE ROCK      NOT AVBL
MINERAL POINT  CLEAR     -6 -11  77 W5        30.45R WCI -17
MADISON        CLEAR     -2 -10  69 W5        30.46R WCI -12
MIDDLETON      CLEAR     -2 -10  68 CALM      30.46S
WATERTOWN      FAIR      -5 -11  75 CALM      30.45R
MONROE         CLEAR      0  -6  78 W10       30.44S WCI -17
JANESVILLE     CLEAR     -4  -8  84 CALM      30.47S
$$

WIZ051-052-058>065-066-070>072-271100-
SOUTHEAST WISCONSIN

CITY           SKY/WX    TMP DP  RH WIND       PRES   REMARKS
MILWAUKEE      FAIR       3  -8  60 W7        30.46R WCI  -9
WAUKESHA       CLEAR     -2  -9  71 W7        30.45R WCI -16
MILWAUKEE/TIMM CLEAR      0  -9  65 W5        30.46R WCI -10
RACINE         CLEAR     -1 -10  65 W8        30.47R WCI -15
BURLINGTON     CLEAR     -3 -11  69 W8        30.45R WCI -18
KENOSHA        CLEAR     -4 -11  72 W5        30.45R WCI -15
FOND DU LAC    CLEAR     -6 -12  75 S3        30.45R
SHEBOYGAN      CLEAR     -1  -9  68 NW6       30.44R WCI -13
WEST BEND      CLEAR      1  -9  60 W5        30.43R WCI  -8
JUNEAU         CLEAR     -1 -10  67 CALM      30.45R
$$

LSZ147-162-271100-
LAKE SUPERIOR

STATION/POSITION TIME  TEMP    WIND        PRES    WAVE
                       AIR SEA DIR/SP/G            HT/PER
                 (UTC) (F)     (DEG/KT/KT) (MB)    (FT/S)
DEVILS ISLAND    0900    5     270/ 10/ 12 1031.5S
PORT WING        0940   -3     190/  8/  9 1030.5S
SAXON HARBOR     0900   -9     200/  4/  8 1030.1S
$$

LMZ867-665-643>646-271100-
LAKE MICHIGAN

STATION/POSITION TIME  TEMP    WIND        PRES    WAVE
                       AIR SEA DIR/SP/G            HT/PER
                 (UTC) (F)     (DEG/KT/KT) (MB)    (FT/S)
NORTHPORT PIER   0927    2     260/  5/  9 1029.5R
SISTER BAY       0813   -1        CALM       N/A
KEWAUNEE LAKESHO 0900   -2     300/  6/  7 1029.1R
SHEBOYGAN LAKESH 0900    4     290/ 11/ 12 1032.4R
PORT WASHINGTON  0900    3     300/  8/ 12 1031.8
MILWAUKEE LAKESH 0900    5     300/  9/ 12   N/A
KENOSHA   LAKESH 0900    2     280/  9/ 15 1030.8S
$$

TC  - TEMPERATURE IN CELSIUS
VSB - VISIBILITY IN STATUTE MILES
WCI - WIND CHILL INDEX
HX  - HEAT INDEX



USA.gov is the U.S. government's official web portal to all federal, state and local government web resources and services.